Vorticity
nan nan nan nan nan nan nan nan nan nan nan nan nan nan nan nan nan nan nan nan nan nan nan nan nan nan nan nan nan nan nan nan nan nan nan nan nan nan nan nan nan nan nan nan nan
nan 6 7 7 7 6 6 6 6 6 6 6 6 6 6 8 17 17 22 16 11 5 2 4 6 4 3 6 7 5 3 3 -1 3 4 4 5 8 1 -1 -1 3 5 8 nan
nan 6 6 6 7 7 6 6 6 6 7 7 6 5 6 13 20 16 18 18 4 2 4 6 6 4 2 4 6 1 -3 -0 2 2 2 2 0 0 -1 4 4 3 3 6 nan
nan 7 6 6 6 7 7 7 7 6 6 6 7 6 10 18 10 13 3 5 8 11 12 9 7 5 4 4 3 3 3 -1 -1 -1 4 7 4 5 4 2 2 6 5 5 nan
nan 6 7 7 7 7 7 7 7 7 6 6 7 9 15 10 7 0 2 -4 3 15 14 11 8 7 3 2 3 7 2 0 2 5 6 6 4 6 6 4 4 6 9 7 nan
nan 8 8 8 8 9 8 7 7 6 6 9 8 11 9 0 3 -5 4 8 7 9 14 13 9 4 8 4 4 3 2 4 7 7 6 8 6 8 7 4 5 5 7 6 nan
nan 7 7 7 7 7 7 7 7 6 7 9 11 9 11 7 -2 7 9 4 5 7 8 11 14 10 9 9 7 4 7 10 11 9 9 8 6 8 6 7 6 7 11 11 nan
nan 8 6 7 8 8 8 7 6 8 12 16 18 10 2 17 14 13 6 7 7 6 4 4 15 18 9 11 15 12 10 9 11 8 11 6 3 9 8 11 10 6 5 11 nan
nan 9 8 8 8 8 8 5 13 20 19 19 13 7 2 13 15 13 14 13 14 12 8 8 8 15 16 9 12 16 10 8 3 10 9 4 5 4 6 8 9 5 9 8 nan
nan 9 9 9 9 9 10 17 23 21 16 4 3 10 6 -0 9 10 15 16 11 15 11 9 10 10 7 12 7 5 5 4 5 11 11 4 6 7 9 5 6 12 12 3 nan
nan 9 8 8 8 9 14 26 24 15 3 -9 7 -4 1 10 -1 2 3 5 11 15 16 6 5 12 11 -5 -1 0 7 7 9 10 8 2 6 13 11 5 8 11 3 5 nan
nan 8 9 9 8 15 15 11 10 9 9 7 7 5 7 1 5 7 7 7 7 10 12 9 6 5 3 8 6 4 5 6 4 10 12 11 9 6 4 6 8 7 10 6 nan
nan 8 8 10 14 17 10 12 6 12 11 12 23 23 24 18 13 13 10 7 6 7 10 11 3 6 8 7 8 10 9 6 4 7 9 11 12 10 9 8 10 9 7 9 nan
nan 9 8 16 14 12 13 11 9 10 14 30 26 21 16 10 21 23 18 12 9 5 9 7 15 10 7 6 8 5 9 4 7 9 11 7 12 16 9 11 9 10 13 12 nan
nan 10 16 14 14 8 7 7 12 11 13 21 14 8 4 2 9 23 17 15 16 12 6 8 13 10 10 9 4 6 6 9 9 6 8 8 6 9 8 9 9 13 13 12 nan
nan 13 21 21 9 4 6 13 13 6 7 6 -1 5 19 3 3 4 9 7 11 17 10 11 6 15 13 11 7 13 8 11 11 11 10 12 6 4 7 9 13 14 10 11 nan
nan 17 20 10 8 9 16 14 8 7 7 3 1 5 8 15 12 4 3 7 15 14 13 14 11 9 18 16 10 9 8 12 10 10 8 11 5 4 11 16 19 17 15 23 nan
nan 26 17 8 9 10 14 11 6 5 4 -1 5 15 11 12 7 10 10 10 14 8 19 27 15 10 8 15 16 8 3 8 5 -2 14 10 5 6 9 11 17 18 14 21 nan
nan 23 5 6 12 13 12 6 3 4 5 5 7 17 23 14 16 6 7 11 10 15 19 23 26 16 7 6 15 13 6 1 5 0 0 17 20 8 9 10 14 16 14 9 nan
nan 12 11 6 12 10 6 5 1 4 8 11 13 8 6 20 20 6 8 19 10 5 7 8 30 26 16 9 6 15 13 7 8 6 8 9 9 16 12 18 20 14 16 5 nan
nan 9 7 7 12 8 6 1 2 6 9 8 11 10 10 12 8 13 10 14 5 8 4 6 11 23 28 13 10 11 10 7 2 9 8 7 12 10 6 15 20 19 14 10 nan
nan 9 9 10 11 10 -0 3 14 8 7 10 13 10 10 10 19 18 12 10 12 2 15 19 5 8 27 26 16 6 12 4 4 7 -2 6 16 13 17 16 17 17 13 9 nan
nan 15 7 6 6 5 5 11 13 8 12 14 6 6 10 15 17 14 13 8 11 7 9 18 16 5 13 32 23 10 12 4 4 10 12 1 11 8 10 20 12 12 18 12 nan
nan 9 9 7 5 4 7 8 6 13 13 5 9 17 10 6 10 11 10 11 9 8 5 10 13 10 5 19 17 21 10 9 5 5 9 6 2 14 13 8 13 14 11 13 nan
nan 11 7 3 4 9 12 10 5 6 8 11 15 4 4 9 13 12 4 7 16 16 13 10 16 14 -4 -6 22 31 10 13 8 0 5 16 1 8 9 7 10 13 11 10 nan
nan 6 9 11 8 7 12 10 3 7 12 13 6 7 10 10 8 2 6 15 10 6 8 8 10 23 15 -2 9 30 25 6 12 7 3 10 9 3 4 4 5 10 11 9 nan
nan nan nan nan nan nan nan nan nan nan nan nan nan nan nan nan nan nan nan nan nan nan nan nan nan nan nan nan nan nan nan nan nan nan nan nan nan nan nan nan nan nan nan nan nan
CAPE
15 14 11 11 8 5 4 8 10 11 7 2 0 2 3 1 0 0 0 0 0 0 0 0 0 0 0 0 0 0 0 0 0 0 2 7 5 28 16 18 26 4 8 1 10
9 10 13 15 8 6 6 6 6 8 8 5 2 0 0 0 0 0 0 0 0 0 0 0 0 0 0 0 0 0 0 0 0 0 2 17 14 4 37 16 16 3 0 31 33
8 7 6 8 11 13 12 7 6 6 5 8 4 1 0 0 0 0 0 0 0 0 0 0 0 0 0 0 0 0 0 9 30 44 26 31 39 28 26 54 27 54 0 24 25
5 7 5 4 4 6 7 8 9 4 2 4 7 3 0 0 0 0 0 0 0 0 0 0 0 0 0 0 0 0 0 13 16 34 25 19 46 58 40 28 29 0 0 0 20
18 15 11 11 7 5 12 3 3 2 3 6 3 4 0 0 0 0 0 0 0 0 0 0 0 0 0 0 0 0 0 0 0 0 9 1 1 14 5 23 12 0 0 0 5
19 18 18 12 5 7 16 8 3 0 2 7 11 8 0 0 0 0 0 0 0 0 0 0 0 0 0 0 0 0 1 8 2 1 11 3 0 0 2 2 0 0 0 0 0
15 18 17 12 12 4 6 3 0 0 1 6 9 7 0 0 0 0 0 0 0 0 0 0 0 0 0 0 0 0 4 8 1 8 1 2 0 0 0 0 0 0 0 0 0
8 19 9 6 9 10 6 4 2 1 2 3 6 7 1 0 0 0 0 0 0 0 0 0 0 0 0 0 0 0 15 2 0 0 5 47 0 0 0 0 0 0 0 0 0
35 32 14 10 12 5 1 0 0 0 0 0 3 2 0 0 0 0 0 0 0 0 0 0 0 0 0 0 0 0 0 0 0 1 14 61 0 0 0 3 2 0 0 0 0
23 17 21 11 6 4 0 0 0 0 0 4 1 9 0 0 0 0 0 0 0 0 0 0 0 0 0 0 0 0 0 0 0 0 17 25 4 1 8 0 0 0 7 0 0
15 18 12 14 9 1 0 0 0 3 31 0 0 0 0 0 0 0 0 0 0 0 0 0 0 0 0 0 0 0 0 0 0 0 15 0 2 31 9 0 0 0 7 1 0
5 5 6 9 1 0 0 0 1 1 1 0 0 0 0 0 0 0 0 0 0 0 0 0 0 0 0 0 0 0 0 0 0 0 21 3 27 11 1 0 0 0 0 0 0
15 11 8 15 0 1 1 3 4 17 22 0 0 0 0 0 0 0 0 0 0 0 0 0 0 0 0 0 0 0 0 0 0 0 7 10 2 0 0 0 0 0 0 0 0
12 15 14 11 0 4 12 5 13 39 13 0 0 0 0 0 0 0 0 0 0 0 0 0 0 0 0 0 0 0 0 0 0 0 1 0 0 0 0 0 0 0 0 0 0
13 15 13 8 5 14 14 27 37 41 13 3 15 40 47 2 5 14 8 0 0 0 0 0 0 0 0 0 0 0 0 0 0 0 0 0 0 0 0 0 0 0 0 0 0
13 18 2 10 32 22 42 40 69 108 34 23 90 5 47 80 54 58 28 33 26 2 0 0 0 0 0 0 0 0 0 0 1 0 0 0 0 0 0 0 0 0 0 0 0
7 0 2 16 71 37 48 24 112 143 7 32 36 34 28 48 30 59 43 55 88 66 12 0 0 0 0 0 0 0 0 0 1 0 0 0 0 0 0 0 0 0 0 0 0
1 0 15 48 9 104 190 128 203 69 124 98 84 41 29 36 40 84 50 48 76 20 144 4 0 0 0 0 0 0 0 0 0 0 0 0 0 0 0 0 0 0 0 62 242
0 43 20 192 123 100 210 286 109 166 150 112 134 123 114 57 42 68 68 63 115 68 173 112 5 0 0 1 0 0 0 0 0 5 0 3 8 0 0 0 0 0 0 274 306
8 47 190 123 246 296 374 159 172 139 119 129 122 137 156 98 36 128 94 111 32 1 0 43 105 2 0 2 0 0 0 1 0 0 3 20 61 46 0 0 0 0 0 108 498
8 60 212 106 233 413 345 163 138 45 124 176 166 154 143 136 100 90 69 142 63 0 0 21 67 86 10 35 0 0 2 0 0 0 15 42 34 52 0 0 3 21 0 170 621
29 100 1 21 312 299 193 92 74 132 99 118 172 162 142 130 149 148 100 152 28 1 8 125 114 105 90 20 10 0 0 0 0 0 0 37 55 0 0 9 64 49 28 482 598
18 13 19 14 140 152 66 81 77 90 67 116 102 134 212 193 124 173 126 29 2 0 95 123 119 17 134 108 23 12 4 1 0 13 18 24 50 0 28 59 74 398 528 628 573
15 42 14 24 20 18 26 58 110 81 79 63 92 120 80 165 156 158 140 54 1 7 21 24 29 45 65 102 47 29 17 7 4 25 24 7 18 0 47 117 310 397 538 516 531
24 44 19 45 37 9 31 25 28 129 142 114 120 110 137 119 117 150 78 119 26 23 32 43 90 0 10 1 54 58 35 17 24 7 39 10 17 40 116 166 270 453 416 473 419
20 15 21 40 24 15 17 71 41 47 118 137 160 150 130 154 147 132 45 70 48 5 50 23 64 34 7 2 23 33 37 30 27 18 18 34 3 1 43 3 50 236 414 451 417
22 22 39 5 34 25 41 18 18 20 39 59 85 155 128 135 156 151 65 22 22 17 18 38 124 104 38 6 0 49 53 31 21 41 15 12 0 0 0 0 0 133 303 434 448